Wind_Speed
34 33 33 32 31 31 30 30 29 28 28 28 27 27 26 25 24 24 25 25 25 25 25 24 24 24 24 24 24 25 25 25 26 26 27 28 28 29 29 29 28 28 28
35 35 35 34 33 33 32 32 32 31 30 30 29 28 27 27 27 26 26 27 27 26 26 26 26 26 26 26 26 26 27 27 27 27 28 29 29 30 30 30 30 30 30
37 37 36 36 35 35 34 34 34 33 32 32 31 29 29 29 29 29 29 29 29 29 28 28 27 27 27 28 28 28 29 29 29 29 30 31 31 32 31 32 32 32 33
39 39 38 38 38 37 37 36 36 36 35 34 33 32 31 31 32 31 31 31 31 31 31 30 30 29 29 30 30 30 31 31 31 31 31 32 32 33 33 34 34 35 35
40 41 40 39 40 39 39 39 38 38 37 37 36 35 34 33 34 34 33 33 33 33 33 33 32 31 31 31 32 32 32 33 33 33 34 34 34 34 35 35 36 36 37
43 43 42 41 41 41 41 41 40 40 39 39 38 37 36 36 35 35 35 35 35 35 35 35 35 34 34 34 34 34 35 35 35 36 36 36 37 37 36 37 37 38 38
45 45 44 44 43 43 43 43 42 42 42 42 40 39 39 38 37 37 37 37 36 36 37 37 37 37 37 37 37 37 37 37 37 38 38 38 38 38 38 38 38 38 38
48 48 46 46 44 44 44 44 44 44 44 43 42 41 40 39 39 39 39 39 39 39 38 38 39 39 39 39 40 40 39 40 39 39 40 39 40 39 39 38 38 38 39
49 49 48 47 46 45 45 45 45 45 44 44 44 43 42 42 41 41 42 42 41 41 41 41 41 42 41 40 41 41 41 40 40 41 41 40 39 39 39 39 40 40 40
49 48 48 48 47 46 46 45 45 46 46 46 46 45 45 45 44 43 43 43 43 43 43 42 42 42 42 42 42 42 43 43 43 42 42 41 40 40 41 41 41 42 42
48 48 48 48 48 47 47 46 46 47 48 47 48 47 47 47 47 46 45 45 45 44 44 43 43 43 43 43 44 44 45 44 44 43 42 41 42 42 42 43 43 43 44
47 47 47 47 48 47 47 48 48 48 48 49 49 49 49 49 49 48 48 47 46 45 45 45 45 46 44 44 44 45 45 44 44 43 43 43 43 43 44 44 45 45 46
45 46 46 47 47 47 47 48 49 49 49 50 49 49 50 50 50 50 49 48 47 47 47 47 47 47 46 45 44 44 44 44 44 44 44 44 44 45 45 45 46 47 48
43 44 45 46 46 47 48 48 48 49 50 50 49 49 49 49 50 50 50 50 49 48 48 48 48 48 48 46 45 44 45 45 46 46 46 45 46 46 47 47 48 49 49
41 42 44 45 46 47 47 48 48 48 49 50 50 50 51 50 50 50 50 51 51 50 49 49 49 48 48 48 46 45 46 47 47 47 47 47 48 49 49 49 49 50 50
41 42 44 44 45 46 46 47 48 48 48 49 50 51 51 51 51 52 52 52 52 52 51 49 48 48 48 49 48 47 47 47 48 48 48 48 49 49 50 50 51 51 50
43 43 44 45 46 46 47 47 48 49 49 50 51 51 52 51 52 52 52 52 52 52 51 50 49 49 49 49 49 48 48 48 49 49 50 50 50 50 50 50 51 51 50
43 44 44 45 46 47 47 48 49 49 49 50 50 50 51 51 51 51 51 51 51 51 50 49 49 48 49 49 49 48 49 49 49 49 50 51 51 51 51 51 52 51 51
44 44 44 46 46 47 47 48 48 48 48 48 49 49 49 49 49 49 49 49 49 49 50 49 48 49 49 50 50 49 49 50 51 49 50 51 51 51 51 52 52 51 51
45 45 45 46 46 46 47 48 48 48 48 48 49 49 49 49 49 48 48 48 48 49 50 50 50 50 50 50 49 49 50 50 51 50 50 50 49 49 50 51 51 51 50
44 44 45 46 46 46 47 47 48 49 48 49 49 48 47 48 48 48 48 47 48 49 49 50 50 50 50 51 50 50 50 49 49 49 50 49 48 48 49 49 49 49 50
43 44 44 45 46 46 46 47 48 48 47 48 48 47 47 46 46 47 47 47 47 48 48 49 49 49 50 50 49 49 48 47 47 48 48 47 47 47 47 47 48 49 49
41 41 42 42 44 44 44 45 47 47 46 46 46 47 47 47 46 46 46 46 46 46 47 48 49 49 49 48 48 48 47 47 46 45 46 47 47 47 47 48 48 49 48
39 39 39 40 41 42 43 45 45 46 46 46 45 46 46 46 46 46 45 44 45 45 45 46 46 47 47 47 47 47 46 46 45 45 45 46 46 45 46 46 46 46 46
38 38 38 38 39 39 40 41 41 42 43 45 44 44 44 44 44 43 43 43 42 43 44 44 44 44 44 45 45 45 46 46 45 44 44 44 43 43 43 44 44 44 44
38 38 38 38 39 39 39 39 40 41 42 42 42 42 42 42 41 41 42 41 40 41 42 42 42 42 43 43 44 45 45 44 43 42 42 42 42 41 41 42 43 43 42
Wind_Direction
257 258 259 261 263 264 264 265 268 270 272 274 274 273 272 273 275 275 274 274 275 276 276 277 280 282 284 286 289 291 292 293 292 291 292 293 294 294 293 292 293 293 293
258 258 258 260 262 263 263 264 267 269 271 272 271 270 270 271 273 273 274 274 275 276 276 276 277 280 282 284 286 288 290 291 290 290 291 292 293 293 292 292 292 292 292
259 259 259 259 260 261 263 264 265 267 270 270 269 268 269 270 271 273 273 274 275 275 276 275 276 279 281 282 283 285 287 288 289 290 290 291 291 292 291 291 291 291 291
259 259 260 260 260 261 262 263 265 267 268 268 267 267 268 269 271 271 272 272 273 274 275 276 276 278 279 281 282 284 285 286 288 290 290 291 292 293 291 290 290 291 291
258 258 259 260 260 261 262 263 265 267 267 267 266 267 269 269 271 271 271 271 272 273 274 275 275 276 278 280 282 284 285 286 287 288 289 290 291 292 292 291 290 291 291
259 259 258 259 261 261 261 262 263 264 264 265 266 266 268 270 270 271 271 271 271 273 273 274 274 275 277 278 280 282 284 285 286 287 288 289 290 292 292 292 290 290 290
259 259 259 259 260 261 261 262 263 263 263 263 264 266 268 270 271 270 271 272 272 274 275 274 272 274 276 278 279 281 283 285 285 286 287 288 289 290 290 291 291 290 290
257 258 260 260 260 260 261 262 263 263 262 262 263 265 267 269 269 269 270 271 272 273 275 275 273 274 277 278 279 281 283 284 285 285 286 287 288 289 290 290 290 290 291
259 258 259 260 259 260 261 262 262 261 262 262 263 264 265 267 268 269 270 270 271 273 274 276 274 274 277 278 278 280 281 283 284 285 285 286 287 288 289 289 290 290 290
258 258 259 260 259 260 261 262 262 261 261 262 263 265 266 267 268 269 269 271 271 272 274 275 274 274 276 276 277 278 280 281 282 283 284 284 285 286 288 288 289 289 289
258 259 259 260 260 260 262 263 263 262 262 262 263 265 265 267 268 268 269 270 272 272 274 275 273 274 275 276 276 278 279 280 281 281 282 283 284 286 287 287 288 288 288
258 259 260 261 261 261 262 263 264 263 263 262 264 265 266 267 267 268 269 271 272 273 273 274 273 273 274 276 276 277 279 279 279 280 281 282 284 285 286 286 288 288 288
259 259 260 261 261 261 263 264 264 263 263 263 264 265 267 267 268 268 269 270 272 273 273 274 273 273 274 275 276 276 277 278 279 279 280 281 283 284 286 286 287 288 288
259 260 261 262 262 262 264 265 264 264 263 263 264 265 266 267 267 268 269 271 271 272 273 273 274 274 273 275 275 275 276 277 278 279 280 281 282 284 285 286 287 287 287
260 261 262 262 263 263 265 266 265 265 264 264 264 265 266 267 267 268 270 271 272 272 273 274 274 274 274 274 275 276 276 277 278 279 280 280 282 283 285 285 286 286 287
261 263 264 264 265 266 266 266 265 265 264 264 265 266 267 268 269 269 271 272 272 274 274 273 274 274 275 274 275 277 277 277 278 279 279 280 281 283 284 284 285 285 286
263 264 265 265 265 267 268 267 265 264 265 265 266 266 267 268 268 269 271 272 272 273 273 273 274 275 274 274 274 277 277 277 279 279 279 280 281 282 282 283 284 285 286
263 264 266 266 266 268 268 267 265 265 265 265 265 266 267 268 269 270 270 272 272 272 273 274 274 274 273 274 275 277 277 278 279 279 279 280 281 281 281 282 283 284 284
264 265 266 267 268 269 268 267 266 266 266 266 266 267 267 268 270 270 270 271 271 272 272 272 273 273 273 274 275 276 277 278 279 279 279 280 279 280 281 281 282 283 284
265 266 266 268 269 270 269 268 266 265 266 266 265 267 267 269 269 270 270 271 271 271 272 272 272 273 273 274 274 276 278 279 279 278 278 279 279 280 281 282 282 284 285
265 266 267 268 269 270 270 269 266 265 266 267 266 266 267 268 269 269 270 270 271 271 272 273 272 273 273 273 274 276 278 278 278 279 279 279 280 280 282 282 283 284 285
265 267 268 269 270 270 271 270 267 266 267 267 265 265 267 268 268 269 270 271 271 272 273 273 272 272 273 274 275 276 277 278 279 280 280 280 281 281 282 283 283 284 285
266 268 269 269 270 270 271 270 268 267 266 267 265 265 266 267 267 268 270 271 272 273 273 273 273 272 272 273 274 275 277 278 280 279 279 280 280 279 281 283 283 284 285
267 269 270 271 272 273 272 270 268 267 266 266 265 266 266 266 268 268 268 270 272 272 273 273 274 273 273 273 274 275 276 277 279 279 280 281 281 281 283 283 284 285 286
268 271 272 273 273 274 274 271 268 266 266 266 266 266 266 266 266 267 268 271 272 271 272 274 274 274 273 274 275 275 276 277 278 279 281 281 282 282 282 283 285 287 287
268 271 272 272 273 274 273 271 268 267 267 267 266 266 267 266 266 267 268 271 272 272 274 274 274 275 275 275 275 275 276 278 278 280 280 280 281 283 283 285 286 287 288
Height
5817 5818 5819 5819 5820 5820 5820 5820 5820 5820 5819 5819 5817 5817 5816 5816 5815 5814 5813 5813 5813 5812 5812 5811 5811 5811 5810 5809 5808 5807 5805 5803 5802 5800 5799 5797 5795 5793 5791 5789 5788 5786 5784
5808 5810 5811 5811 5812 5813 5813 5813 5813 5813 5812 5811 5811 5810 5810 5809 5809 5808 5807 5807 5806 5806 5805 5805 5805 5804 5804 5803 5802 5801 5799 5798 5796 5794 5792 5791 5789 5787 5785 5783 5781 5779 5777
5800 5801 5802 5803 5804 5804 5805 5805 5805 5805 5805 5804 5803 5803 5803 5803 5802 5802 5801 5800 5800 5799 5799 5798 5798 5797 5797 5796 5795 5794 5792 5791 5789 5788 5786 5784 5782 5780 5778 5776 5774 5772 5770
5791 5792 5793 5794 5795 5796 5796 5797 5797 5797 5796 5796 5796 5796 5796 5795 5795 5794 5794 5793 5793 5792 5791 5791 5791 5790 5790 5789 5788 5787 5785 5784 5782 5780 5778 5776 5774 5772 5770 5768 5766 5764 5762
5781 5782 5783 5785 5785 5786 5787 5788 5788 5788 5788 5788 5788 5788 5788 5788 5787 5787 5786 5786 5785 5784 5784 5783 5783 5783 5782 5781 5780 5779 5777 5776 5774 5772 5771 5769 5766 5764 5762 5760 5757 5755 5753
5771 5772 5773 5774 5775 5776 5777 5778 5778 5778 5778 5779 5779 5780 5780 5779 5779 5779 5778 5777 5777 5776 5776 5775 5775 5774 5773 5773 5771 5770 5769 5767 5766 5764 5762 5760 5758 5756 5753 5750 5748 5746 5744
5759 5760 5762 5764 5765 5766 5767 5767 5768 5768 5769 5769 5770 5770 5771 5771 5771 5771 5770 5769 5768 5767 5767 5766 5766 5765 5765 5764 5763 5761 5760 5758 5756 5754 5752 5750 5748 5746 5744 5741 5739 5736 5734
5747 5749 5750 5752 5753 5754 5755 5757 5757 5758 5758 5759 5760 5761 5762 5763 5762 5761 5761 5760 5759 5758 5758 5757 5757 5756 5754 5754 5753 5752 5750 5748 5746 5744 5742 5740 5738 5736 5734 5732 5729 5727 5724
5735 5737 5739 5740 5742 5743 5744 5745 5746 5747 5747 5748 5749 5750 5751 5752 5752 5752 5752 5751 5750 5749 5748 5747 5746 5745 5744 5743 5742 5741 5740 5738 5736 5734 5732 5730 5728 5726 5724 5722 5719 5717 5714
5723 5724 5726 5728 5730 5731 5732 5733 5734 5735 5736 5737 5738 5739 5740 5740 5741 5742 5742 5741 5740 5738 5738 5737 5736 5735 5734 5733 5732 5730 5729 5727 5725 5723 5721 5720 5718 5716 5714 5711 5709 5707 5704
5711 5712 5714 5716 5717 5719 5720 5721 5722 5723 5724 5725 5726 5727 5728 5728 5729 5730 5731 5731 5730 5728 5727 5726 5725 5724 5722 5721 5720 5719 5717 5716 5714 5712 5711 5709 5707 5705 5703 5701 5698 5696 5693
5700 5701 5702 5704 5705 5707 5708 5709 5710 5711 5712 5713 5714 5714 5715 5717 5717 5717 5718 5719 5718 5718 5716 5715 5714 5712 5710 5709 5708 5707 5706 5704 5703 5701 5700 5698 5696 5694 5692 5689 5687 5684 5681
5688 5690 5691 5692 5694 5695 5696 5697 5698 5699 5699 5700 5701 5702 5703 5704 5704 5705 5705 5706 5706 5706 5705 5704 5702 5700 5699 5697 5696 5695 5694 5693 5691 5690 5688 5687 5685 5683 5680 5678 5675 5673 5669
5677 5678 5679 5680 5682 5683 5683 5684 5685 5686 5687 5688 5689 5689 5690 5691 5691 5692 5692 5692 5693 5694 5693 5692 5690 5688 5687 5685 5684 5683 5682 5681 5680 5678 5677 5675 5673 5671 5668 5666 5663 5660 5657
5666 5668 5668 5669 5669 5670 5671 5671 5672 5673 5674 5675 5676 5677 5678 5678 5678 5679 5679 5679 5679 5680 5681 5680 5678 5676 5674 5673 5671 5670 5670 5668 5667 5666 5664 5662 5661 5658 5656 5653 5650 5647 5644
5655 5656 5657 5657 5658 5658 5659 5659 5660 5661 5661 5662 5663 5663 5664 5665 5665 5665 5666 5665 5665 5665 5665 5666 5665 5663 5662 5660 5659 5658 5657 5655 5654 5653 5651 5649 5647 5645 5642 5640 5637 5634 5631
5643 5644 5645 5645 5646 5646 5646 5646 5647 5647 5648 5649 5649 5650 5651 5651 5652 5652 5652 5651 5651 5650 5651 5652 5651 5650 5649 5648 5646 5645 5644 5642 5641 5639 5638 5636 5634 5632 5629 5626 5623 5621 5618
5631 5632 5633 5633 5634 5634 5633 5633 5634 5634 5635 5635 5636 5636 5637 5637 5638 5638 5638 5638 5638 5637 5637 5638 5638 5637 5636 5634 5633 5632 5631 5629 5627 5626 5624 5622 5620 5617 5615 5613 5610 5608 5605
5619 5620 5621 5621 5621 5621 5620 5620 5621 5621 5622 5622 5622 5623 5624 5624 5625 5625 5625 5625 5624 5624 5624 5624 5624 5624 5623 5621 5620 5619 5617 5615 5614 5612 5610 5608 5606 5603 5601 5599 5597 5594 5591
5606 5607 5608 5608 5608 5607 5607 5607 5607 5608 5608 5609 5609 5610 5611 5611 5611 5611 5611 5611 5611 5611 5611 5611 5611 5610 5609 5608 5606 5605 5604 5602 5600 5598 5596 5594 5592 5590 5588 5586 5583 5581 5578
5595 5595 5595 5595 5595 5594 5594 5594 5594 5595 5595 5596 5596 5597 5598 5598 5598 5598 5598 5598 5598 5598 5597 5597 5597 5596 5595 5594 5593 5591 5590 5588 5587 5584 5582 5580 5579 5577 5574 5572 5570 5567 5564
5583 5583 5583 5583 5582 5582 5581 5581 5581 5581 5582 5583 5584 5585 5585 5586 5586 5585 5585 5585 5585 5584 5584 5583 5583 5583 5582 5580 5579 5578 5576 5575 5575 5574 5570 5568 5565 5563 5561 5559 5556 5553 5550
5571 5571 5571 5570 5570 5569 5569 5568 5568 5568 5569 5570 5570 5571 5572 5573 5573 5573 5573 5572 5572 5571 5570 5569 5569 5569 5568 5567 5566 5565 5563 5562 5561 5560 5558 5556 5553 5550 5548 5545 5542 5540 5537
5559 5559 5558 5558 5558 5557 5556 5555 5555 5555 5557 5557 5558 5559 5559 5560 5560 5560 5561 5560 5560 5559 5558 5557 5557 5556 5555 5554 5553 5552 5551 5549 5548 5547 5545 5544 5542 5538 5534 5531 5529 5526 5523
5548 5548 5547 5547 5546 5546 5545 5544 5544 5544 5544 5545 5545 5546 5546 5547 5548 5548 5548 5549 5548 5547 5546 5545 5544 5543 5542 5541 5540 5539 5538 5537 5536 5535 5532 5531 5529 5526 5523 5520 5517 5514 5511
5538 5537 5537 5536 5535 5535 5534 5533 5533 5533 5533 5534 5534 5534 5534 5535 5535 5535 5536 5536 5536 5536 5535 5534 5533 5532 5531 5530 5528 5527 5526 5524 5523 5522 5521 5519 5516 5514 5513 5510 5506 5503 5499